Powrót do katalogu

GORIZONT 30

AktywnyŁącznośćGEO
NORAD 23108·PAYLOAD·🇷🇺 Russia

Wystrzelony May 20, 1994 z Baikonur Cosmodrome

Loading…

TLE

ŚwieżeSource: Space-Track

Epoka: Sep 14, 2026, 09:56 UTC

1 23108U 94030A   26257.41414990 -.00000062  00000-0  00000-0 0  9993
2 23108  14.0238 347.5181 0005472 279.2019 124.1637  1.00158786118359

Śledź GORIZONT 30 w czasie rzeczywistym z AllMySat

Download on the App Store